Winthrop, MA

12:03 PM EST on December 06, 2016 (GMT -0500)
Logan International

Weather History for KBOS - March, 2014

Change the Weather History Date:

Wednesday, March 26, 2014

  Actual Average Record
Temperature  
Mean Temperature 30 °F 41 °F  
Max Temperature 35 °F 48 °F 79 °F (1922)
Min Temperature 24 °F 34 °F 13 °F (1960)
Degree Days  
Heating Degree Days 35 24  
Month to date heating degree days 851 714  
Since 1 July heating degree days 4999 4756  
Cooling Degree Days 0 0  
Month to date cooling degree days 0 0  
Year to date cooling degree days 0 0  
Moisture  
Dew Point 7 °F    
Average Humidity 39    
Maximum Humidity 53    
Minimum Humidity 25    
Precipitation  
Precipitation T in 0.15 in 2.56 in (1877)
Month to date precipitation 0.82 3.61  
Year to date precipitation 8.19 10.22  
Sea Level Pressure  
Sea Level Pressure 29.74 in    
Wind  
Wind Speed 26 mph (NNW)    
Max Wind Speed 38 mph    
Max Gust Speed 54 mph    
Visibility 10 miles    
Events Snow    
T = Trace of Precipitation, MM = Missing Value Source: NWS Daily Summary

Daily Weather History Graph

Daily Weather History Graph

Search for Another Location

Airport or City:

Trip Planner

Search our weather history database for the weather conditions in past years. The results will help you decide how hot, cold, wet, or windy it might be!

Date:

Astronomy

Mar. 26, 2014 Rise Set
Actual Time 6:36 AM EDT 7:03 PM EDT
Civil Twilight 6:08 AM EDT 7:31 PM EDT
Nautical Twilight 5:35 AM EDT 8:04 PM EDT
Astronomical Twilight 5:01 AM EDT 8:38 PM EDT
Moon 3:48 AM EDT (3/26) 2:33 PM EDT (3/26)
Length of Visible Light 13h 22m
Length of Day
12h 26m
Waning Crescent, 22% of the Moon is Illuminated
Mar 26
Waning Crescent
Mar 30
New
Apr 7
First Quarter
Apr 15
Full
Apr 22
Last Quarter

Hourly Weather History & Observations

Time (EDT) Temp. Windchill Dew Point Humidity Pressure Visibility Wind Dir Wind Speed Gust Speed Precip Events Conditions
12:54 AM 33.1 °F 22.6 °F 15.1 °F 48% 29.87 in 10.0 mi ENE 16.1 mph - N/A   Overcast
1:54 AM 33.1 °F 22.6 °F 15.1 °F 48% 29.85 in 10.0 mi NE 16.1 mph - N/A   Overcast
2:54 AM 33.1 °F 22.6 °F 15.1 °F 48% 29.84 in 10.0 mi NE 16.1 mph 25.3 mph N/A   Overcast
3:54 AM 32.0 °F 19.2 °F 15.1 °F 50% 29.81 in 10.0 mi NE 23.0 mph 33.4 mph N/A   Overcast
4:54 AM 30.9 °F 17.8 °F 16.0 °F 54% 29.76 in 8.0 mi NNE 23.0 mph 34.5 mph 0.00 in Snow Light Snow
5:54 AM 30.9 °F 16.2 °F 15.1 °F 52% 29.72 in 9.0 mi NNE 29.9 mph 41.4 mph 0.00 in Snow Light Snow
6:54 AM 30.0 °F 16.0 °F 12.9 °F 49% 29.70 in 10.0 mi NNE 25.3 mph 41.4 mph 0.00 in   Overcast
7:54 AM 28.9 °F 14.0 °F 10.0 °F 45% 29.68 in 10.0 mi North 27.6 mph 43.7 mph 0.00 in   Overcast
8:54 AM 30.0 °F 15.2 °F 6.1 °F 36% 29.65 in 10.0 mi North 28.8 mph 39.1 mph N/A   Overcast
9:54 AM 28.9 °F 13.7 °F 8.1 °F 41% 29.66 in 6.0 mi North 28.8 mph 46.0 mph 0.00 in Snow Light Snow
10:54 AM 30.0 °F 14.5 °F 7.0 °F 38% 29.62 in 10.0 mi NNW 32.2 mph 42.6 mph 0.00 in   Overcast
11:54 AM 30.9 °F 16.4 °F 9.0 °F 40% 29.60 in 10.0 mi NNW 28.8 mph 43.7 mph N/A   Overcast
12:54 PM 33.1 °F 19.8 °F 7.0 °F 34% 29.59 in 10.0 mi NNW 26.5 mph 54.1 mph N/A   Overcast
1:54 PM 34.0 °F 21.0 °F 8.1 °F 34% 29.58 in 10.0 mi NNW 26.5 mph 40.3 mph N/A   Overcast
2:54 PM 34.0 °F 19.9 °F 3.0 °F 27% 29.59 in 10.0 mi NW 32.2 mph 44.9 mph N/A   Overcast
3:54 PM 34.0 °F 20.8 °F 1.9 °F 26% 29.62 in 10.0 mi NW 27.6 mph 39.1 mph N/A   Overcast
4:54 PM 34.0 °F 20.5 °F 1.9 °F 26% 29.65 in 10.0 mi NW 28.8 mph 42.6 mph N/A   Overcast
5:54 PM 33.1 °F 18.9 °F 1.9 °F 27% 29.70 in 10.0 mi NW 31.1 mph 41.4 mph N/A   Overcast
6:54 PM 30.9 °F 17.5 °F 1.9 °F 29% 29.76 in 10.0 mi NW 24.2 mph 38.0 mph N/A   Mostly Cloudy
7:54 PM 30.0 °F 14.5 °F 1.9 °F 30% 29.83 in 10.0 mi NW 32.2 mph 41.4 mph N/A   Mostly Cloudy
8:54 PM 28.9 °F 15.4 °F 3.0 °F 33% 29.88 in 10.0 mi NW 21.9 mph 33.4 mph N/A   Partly Cloudy
9:54 PM 28.0 °F 14.6 °F 1.0 °F 31% 29.93 in 10.0 mi NW 20.7 mph 35.7 mph N/A   Partly Cloudy
10:54 PM 26.1 °F 10.1 °F -0.9 °F 31% 29.96 in 10.0 mi WNW 27.6 mph 35.7 mph N/A   Clear
11:54 PM 25.0 °F 9.2 °F -2.9 °F 30% 30.01 in 10.0 mi NW 25.3 mph 38.0 mph N/A   Clear